Dewpoint
32 31 30 29 26 23 21 21 22 19 12 9 7 6 4 4 5 6 12 18 22 24 28 32 36 41 45 48 48 54 53 55 57 60 59 59 61 62 62 66 64 60 58 58 59 60 60 60 62 63 63 63 63 66 66 64 64 67 63 68 69 69 69 71 71 71 69 70 70 68 65 63 62 70 68 65 66 65 69 73 74 76 75 77 78 78
27 29 28 28 25 21 19 19 18 18 17 14 11 8 9 11 7 5 6 15 19 23 28 33 34 37 52 50 49 49 52 53 58 58 59 60 60 60 64 64 64 64 58 58 59 59 60 60 60 61 63 64 62 65 66 64 64 66 61 66 68 69 70 71 71 72 70 72 69 67 66 63 62 67 68 68 69 64 69 76 76 76 75 77 78 78
26 25 27 27 25 22 19 18 17 16 15 15 13 11 8 10 11 8 5 7 16 19 18 26 31 33 48 49 51 50 51 53 56 58 61 64 63 63 66 65 67 65 63 58 58 59 59 60 60 62 62 62 63 64 65 65 65 67 63 69 69 69 70 72 72 73 72 71 70 67 66 64 63 66 66 64 66 67 70 72 75 75 77 77 77 77
25 24 25 27 25 23 21 19 18 17 16 14 12 11 9 9 7 7 7 7 8 15 18 24 26 32 41 49 52 52 52 54 58 61 62 65 68 66 63 65 69 66 64 59 58 57 59 60 61 62 63 63 63 65 65 64 65 65 65 70 70 70 71 72 73 73 71 71 72 71 71 67 66 66 68 71 70 69 71 71 72 76 77 76 75 74
21 23 24 24 25 24 21 20 18 18 17 16 13 11 9 9 8 7 7 7 9 13 17 19 22 25 33 42 50 52 51 59 57 59 60 62 64 63 64 66 67 68 67 60 58 58 59 60 61 62 64 63 63 64 66 65 63 63 65 70 71 71 72 72 73 72 72 72 72 72 73 71 70 69 69 67 66 68 71 69 72 73 76 76 75 74
18 22 21 22 23 23 22 20 19 18 18 17 16 13 11 12 10 8 7 5 5 10 13 16 21 22 32 33 36 41 46 50 54 56 58 60 62 66 67 63 66 68 67 63 60 59 59 60 61 63 64 63 63 65 66 66 65 64 66 70 71 71 72 71 73 72 72 72 70 71 71 69 70 67 67 66 66 63 65 65 68 72 72 73 74 76
18 19 20 19 21 21 21 20 20 20 18 17 17 17 15 13 12 11 9 7 7 11 14 14 17 24 28 29 34 42 43 47 51 54 57 61 63 64 65 64 62 62 63 61 61 59 58 60 61 62 63 63 63 65 66 67 66 66 67 70 72 71 72 71 73 72 72 72 71 69 68 66 70 68 67 70 66 65 67 68 70 73 73 75 73 73
22 20 18 19 19 18 18 18 19 20 18 16 17 16 16 16 14 11 11 10 9 9 9 15 15 18 21 25 29 45 44 46 52 54 56 61 62 62 63 63 63 64 64 61 59 59 59 61 61 62 64 64 63 64 65 66 67 68 69 70 71 71 72 72 73 72 72 71 71 70 68 67 70 65 69 69 72 71 69 72 68 70 72 75 75 74
22 21 19 18 19 17 15 16 18 18 16 16 16 16 15 12 12 12 11 10 8 8 14 14 17 23 25 26 27 35 45 44 49 54 56 59 59 61 63 62 62 62 63 62 60 59 60 61 60 62 63 64 64 64 65 66 68 69 70 71 71 71 72 73 73 72 71 72 72 70 69 70 70 70 70 70 71 72 71 69 73 72 71 75 75 76
22 24 23 20 18 17 17 15 15 15 15 16 16 17 15 12 11 10 11 11 11 12 14 17 16 20 21 23 23 25 27 48 47 50 56 58 57 60 62 62 60 61 61 61 62 60 60 60 60 61 63 63 64 64 66 66 67 67 70 71 71 71 71 72 73 73 72 72 73 71 70 71 69 71 71 69 70 74 74 73 72 75 75 72 74 74
14 21 26 22 19 18 18 17 16 15 15 16 17 16 14 12 12 16 18 19 18 14 14 8 12 17 18 20 22 24 22 29 49 51 52 59 58 61 61 60 60 60 60 62 62 60 62 63 62 62 62 64 64 65 65 65 66 67 68 71 70 71 70 72 73 73 71 72 72 71 71 71 70 70 71 70 71 72 73 72 70 73 76 73 73 72
10 12 14 17 21 20 18 16 17 16 16 17 16 14 12 15 16 20 20 23 20 17 18 9 6 10 16 20 18 25 25 24 30 39 52 56 62 59 61 59 59 60 60 61 60 60 61 63 63 62 63 65 66 65 64 64 66 67 68 70 71 72 70 70 72 72 71 71 72 71 71 70 70 70 68 69 70 69 70 70 72 73 76 75 74 75
2 4 9 13 24 20 19 16 16 18 17 16 15 15 13 15 16 15 19 17 19 19 19 12 8 7 12 19 18 16 21 24 28 29 47 50 51 58 59 59 58 57 59 60 62 63 63 63 63 64 65 67 67 66 65 65 64 66 68 70 71 72 71 70 72 71 71 70 71 71 70 70 70 70 69 69 70 69 70 69 71 74 74 75 74 74
-1 2 1 1 7 20 19 18 19 18 18 15 14 15 16 15 15 16 17 20 19 19 19 16 12 9 12 12 17 15 17 27 27 30 31 59 54 55 56 56 56 58 60 62 63 63 65 65 65 69 67 69 68 65 65 65 66 67 67 70 71 72 71 71 71 72 71 70 71 71 70 69 70 70 69 69 67 69 70 71 70 68 69 73 72 71
8 3 2 1 -1 8 17 17 19 20 20 18 14 12 17 19 14 17 17 16 17 20 18 18 15 16 9 15 9 12 14 20 27 27 32 36 42 54 54 52 55 59 60 61 62 61 62 63 67 67 69 69 69 66 64 64 67 68 69 71 72 72 72 71 72 72 71 70 70 70 70 69 69 68 68 68 67 68 70 69 69 71 68 69 70 71
9 10 9 5 4 4 12 18 17 16 18 18 15 14 15 17 19 15 18 18 16 17 18 21 18 17 14 20 16 16 13 15 21 25 28 33 36 56 50 55 57 57 56 55 57 60 64 66 68 67 67 66 66 67 66 65 67 67 69 72 73 72 72 71 72 72 71 70 69 71 70 69 69 69 68 69 69 70 70 72 71 72 72 70 72 72
18 13 8 12 11 8 7 17 18 15 14 18 16 14 15 16 15 19 22 18 19 21 21 23 20 17 18 14 11 14 14 15 17 19 23 31 32 47 55 54 55 57 56 57 60 62 63 65 67 66 66 66 67 65 65 67 67 69 70 71 73 73 72 71 72 72 71 71 70 70 70 70 69 68 66 65 66 63 67 71 72 72 70 70 73 71
13 15 17 17 16 13 12 14 15 17 16 15 14 15 17 18 16 20 17 22 18 17 21 20 18 20 17 19 19 15 15 14 16 16 19 29 32 37 58 54 56 56 57 57 59 62 62 64 66 63 62 63 63 64 67 69 68 69 70 70 72 73 73 72 71 71 71 71 70 70 70 70 69 67 64 64 65 64 65 68 72 70 71 68 67 69
12 11 12 12 11 14 16 16 17 18 14 14 15 15 13 18 19 22 20 17 17 18 18 19 20 20 20 21 20 19 16 17 21 22 20 21 28 32 48 56 57 55 54 57 59 59 63 65 64 66 67 66 68 69 68 68 67 66 68 69 71 73 73 72 70 71 72 71 68 69 70 69 69 68 66 65 67 66 65 63 68 69 69 69 69 70
16 14 14 13 13 12 9 12 15 15 16 16 18 16 17 16 18 21 20 21 22 18 19 18 17 19 19 20 19 22 20 23 21 20 18 18 33 35 37 43 55 51 58 59 59 62 63 63 64 63 63 63 65 67 67 67 66 66 66 68 71 72 73 73 72 73 72 70 70 70 71 70 70 70 68 68 69 66 65 66 66 68 66 69 69 69
11 18 14 12 13 12 12 11 10 12 12 14 16 16 16 17 17 17 17 17 16 20 20 20 18 21 22 20 19 23 23 26 25 25 28 22 28 34 35 35 43 50 56 57 58 58 59 60 59 63 66 64 66 67 68 68 68 66 66 67 70 72 72 72 72 71 72 72 72 72 72 71 71 69 70 68 69 69 69 68 69 68 68 70 70 70
10 9 12 12 11 10 9 10 7 7 9 9 9 12 14 16 18 18 18 15 14 17 21 18 19 27 19 18 19 20 26 26 27 28 26 23 20 33 35 34 44 46 60 57 57 57 56 56 59 61 63 64 63 65 70 70 71 71 69 68 69 71 71 71 72 72 73 73 71 70 71 70 70 70 70 68 68 69 69 69 70 70 71 69 71 71
21 22 22 18 12 7 5 7 9 12 18 19 15 9 14 14 17 18 20 20 15 11 14 17 18 25 27 27 30 22 21 21 26 24 25 22 25 23 30 29 39 50 51 57 56 56 56 58 59 62 64 64 64 68 68 69 68 68 68 70 68 70 71 71 71 72 73 72 72 72 72 71 71 70 69 67 66 65 66 69 69 70 71 69 68 71
33 21 19 17 17 15 16 17 17 17 16 13 14 15 10 9 15 18 18 22 22 19 16 16 19 21 23 37 32 25 33 20 27 24 28 22 21 25 28 30 41 48 50 60 58 54 61 62 64 64 64 64 64 67 68 68 67 66 68 70 69 70 71 71 71 71 72 72 71 70 72 72 72 70 69 68 67 66 66 68 68 70 70 69 68 69
20 24 21 18 19 20 18 16 11 12 15 13 9 11 9 10 14 15 17 28 26 23 18 17 17 18 23 32 34 28 23 21 20 21 23 25 28 22 24 29 37 46 48 44 47 59 61 61 62 64 64 65 64 65 67 67 66 66 66 68 68 69 71 71 71 71 72 71 70 69 71 70 70 70 69 68 67 67 66 67 68 69 68 69 68 69
20 22 26 22 18 15 17 15 11 9 11 13 13 15 17 7 13 17 19 26 25 31 32 28 22 22 21 38 32 29 28 33 29 26 23 24 31 26 27 27 42 48 45 47 51 60 61 61 61 63 65 66 63 61 66 67 65 64 64 65 66 69 70 71 71 71 71 71 70 70 71 70 70 70 70 68 67 67 67 67 68 69 69 69 69 69
22 22 24 26 25 23 19 27 26 26 25 24 24 25 26 25 24 27 29 26 21 28 26 30 33 28 31 28 45 48 41 25 23 30 43 41 32 44 56 54 48 56 47 45 51 57 61 63 62 64 67 64 62 61 62 64 65 65 66 66 66 67 69 71 71 71 71 71 70 70 70 70 69 71 70 70 68 67 68 67 68 68 69 69 69 68
26 22 21 25 24 24 24 25 24 23 23 24 24 24 25 24 25 27 25 26 38 30 27 35 41 27 27 35 38 47 49 47 47 56 38 53 51 51 57 59 59 30 47 50 52 57 63 63 63 66 65 63 61 62 64 65 66 66 67 66 67 67 68 70 70 71 72 72 71 71 70 70 71 72 72 71 70 70 68 68 68 69 70 71 70 69
24 20 20 19 17 17 17 16 15 19 16 17 19 20 21 22 23 25 28 29 31 30 29 34 38 35 29 40 46 50 50 52 53 56 57 54 54 56 57 56 57 58 38 44 63 69 62 63 65 65 65 64 62 62 63 63 64 66 68 67 68 67 68 70 71 70 70 72 72 72 71 72 72 72 72 72 72 71 70 69 70 70 71 72 71 70
25 22 20 16 15 13 13 13 12 12 11 12 14 17 19 18 19 22 24 25 27 32 31 30 34 30 27 43 47 51 54 54 55 58 58 58 55 55 54 55 54 55 56 59 62 63 66 68 67 68 66 66 63 64 62 64 67 67 67 67 67 68 68 70 70 71 70 71 71 72 72 73 73 73 73 73 73 72 71 70 71 70 71 72 72 72
24 23 26 21 19 16 14 15 16 16 14 10 11 14 15 15 17 19 21 24 28 28 27 27 32 32 44 49 48 49 53 51 55 56 57 57 56 54 54 53 55 55 56 58 60 61 65 67 66 67 71 69 66 65 65 66 67 66 65 65 66 68 68 68 71 70 70 71 71 72 73 74 73 73 73 73 73 73 72 72 71 72 72 73 72 72
29 28 25 22 20 19 18 17 16 15 13 12 12 13 13 15 17 18 21 23 26 28 29 28 29 29 53 50 49 50 54 56 54 58 58 57 55 54 53 53 54 56 57 58 60 60 61 63 66 70 69 68 69 70 69 70 66 65 64 65 65 66 66 67 69 68 71 71 72 74 74 73 74 73 73 74 74 74 73 73 72 72 73 72 72 73
31 29 26 24 19 19 17 16 15 15 15 12 12 11 14 16 17 18 20 23 26 27 27 28 30 46 50 50 49 51 52 53 57 55 55 56 56 54 53 54 54 55 56 59 59 60 60 62 64 66 67 68 70 70 70 71 67 65 65 66 66 67 65 66 66 69 71 71 73 74 74 74 74 73 73 74 74 74 74 73 73 73 72 71 72 72
34 30 28 33 26 22 18 19 19 18 15 15 17 14 14 15 16 15 17 20 23 25 27 29 30 41 41 47 48 47 49 52 53 57 57 55 54 54 53 53 54 54 56 57 58 58 61 62 63 64 65 68 69 65 64 64 64 65 65 65 67 68 68 68 68 69 71 72 74 75 74 74 74 74 74 74 75 75 74 73 73 72 71 70 71 73
27 32 27 34 26 22 21 21 20 18 17 20 17 28 38 35 33 39 40 36 25 24 26 27 27 30 40 47 48 48 51 49 55 57 52 51 51 52 52 52 53 54 55 56 57 57 60 61 62 63 64 65 68 70 69 61 58 63 66 65 65 67 71 71 70 71 71 73 74 75 75 75 75 74 75 75 75 75 74 73 73 73 71 68 69 72
29 25 26 27 27 24 22 22 21 18 25 21 19 43 42 38 40 39 35 32 31 33 45 44 46 45 37 37 45 48 50 48 51 50 50 51 49 50 50 51 51 52 53 55 56 58 59 59 60 60 62 66 67 67 66 66 61 59 62 63 64 66 69 71 73 73 72 73 74 75 75 75 75 75 75 75 75 75 74 74 74 73 72 70 68 69
34 35 30 26 27 24 23 20 18 23 24 25 28 41 40 41 41 41 38 36 46 44 44 44 44 44 44 46 46 47 48 47 48 51 47 49 47 48 49 50 50 51 52 55 55 56 58 59 60 60 63 63 65 67 67 65 63 58 57 62 62 66 66 69 73 72 73 73 73 74 75 74 74 75 75 75 75 75 74 74 74 74 73 71 69 69
32 34 35 28 24 23 19 17 20 19 19 24 41 41 40 42 42 43 42 38 45 44 44 44 43 43 43 43 45 46 46 46 46 47 47 46 46 48 48 50 49 50 51 53 55 55 57 58 60 61 62 63 65 66 68 68 62 61 63 63 62 63 66 65 69 72 73 72 73 74 74 75 75 75 76 76 75 75 74 74 74 73 73 72 70 68
32 32 36 32 27 24 23 21 21 18 22 39 40 42 41 40 43 44 41 36 44 43 43 43 42 42 42 42 43 46 48 45 43 49 47 46 46 47 47 49 49 49 50 52 53 54 56 58 59 60 62 63 63 66 69 69 69 61 63 65 63 63 63 65 69 71 72 72 72 74 75 75 75 75 76 76 75 74 74 74 74 73 73 71 70 70
36 36 36 32 31 28 22 20 19 20 24 39 41 39 37 40 42 42 35 35 41 42 43 44 42 42 42 43 43 45 47 46 45 46 46 46 46 46 47 47 49 49 50 50 52 54 56 59 59 59 59 60 62 64 68 70 69 69 64 64 64 62 62 65 67 70 72 72 72 74 76 75 76 76 76 77 76 76 76 76 74 73 72 72 71 70
33 33 32 29 27 27 26 21 19 22 39 40 39 40 40 42 39 32 31 40 43 43 43 44 43 42 43 43 44 43 45 45 45 46 46 48 46 46 46 46 48 49 50 50 51 56 54 56 56 57 59 61 63 64 66 70 70 67 68 66 65 63 63 67 69 71 73 73 72 73 75 75 76 76 77 77 77 75 75 75 75 74 73 72 71 70
33 33 33 31 30 25 22 23 19 29 40 40 39 40 42 38 29 29 42 43 44 44 44 44 43 44 43 43 46 44 44 44 46 46 46 46 46 46 45 46 47 49 49 51 53 53 53 53 56 57 58 60 62 64 65 69 71 70 70 68 66 66 65 68 70 72 74 74 73 72 74 75 76 76 76 77 77 76 76 76 76 75 74 72 72 73
33 31 28 29 29 29 27 24 23 21 36 38 40 37 41 36 40 42 42 42 42 42 43 43 43 43 44 43 43 43 43 43 45 45 46 45 45 45 45 46 48 48 49 50 51 52 52 53 55 56 58 58 60 62 65 68 70 69 72 69 68 67 68 71 71 73 74 75 73 74 75 76 76 76 76 76 77 76 76 76 76 76 76 75 75 74
38 31 30 33 37 29 26 22 25 36 38 39 39 37 41 42 41 42 41 40 41 41 42 42 43 43 43 43 43 44 44 44 45 46 45 46 46 45 45 46 47 48 49 49 50 51 52 53 55 56 57 58 61 64 67 71 72 71 72 72 71 69 70 73 73 75 75 75 74 75 75 76 76 77 76 76 77 77 76 76 76 77 77 76 75 74
38 35 36 32 39 35 31 35 39 42 41 38 39 39 42 43 42 41 41 41 41 41 43 42 42 43 43 43 44 44 44 44 45 45 45 45 46 47 47 46 47 48 48 49 49 52 52 53 55 56 57 58 61 64 68 72 74 74 74 74 73 72 73 73 73 74 75 75 74 75 75 76 76 76 76 76 76 76 76 76 76 76 77 77 76 75
38 38 39 38 36 37 36 38 40 38 38 37 42 43 42 42 41 41 41 40 41 41 42 42 43 43 44 45 44 45 45 45 45 45 45 45 46 49 50 48 48 48 48 49 51 52 53 53 55 55 57 59 61 63 68 74 74 74 75 75 74 74 75 75 75 75 75 75 75 76 76 76 75 76 76 76 76 77 77 76 76 76 77 76 75 75
39 38 38 36 35 33 31 37 37 37 37 37 39 40 41 41 42 41 41 41 41 41 42 42 43 43 44 45 45 45 45 46 46 46 47 47 47 48 48 49 49 49 49 51 52 54 53 54 55 56 57 58 60 63 67 74 76 77 77 76 75 74 77 76 76 75 76 76 76 76 76 76 75 75 76 76 76 77 77 76 75 75 76 75 74 74
36 41 39 36 35 36 34 36 37 37 36 40 39 38 38 39 40 41 41 41 41 42 42 42 43 43 44 44 45 45 45 46 46 46 47 48 48 48 48 50 51 51 51 52 53 54 53 53 55 56 57 58 60 63 68 73 77 78 78 76 74 74 77 76 75 75 75 75 75 75 75 75 75 75 75 75 74 74 74 74 75 74 75 74 73 73
38 41 33 35 35 38 36 37 37 37 37 41 38 38 39 39 39 40 40 41 40 40 41 41 43 43 43 44 44 45 45 46 47 47 47 47 48 48 49 50 52 52 53 54 54 54 53 54 55 56 57 58 60 64 71 75 77 79 77 77 75 75 77 76 75 75 75 74 73 73 74 74 75 74 74 75 75 73 78 76 73 74 74 73 74 73
32 32 34 34 31 30 34 36 37 33 33 35 37 38 39 40 40 40 40 41 40 40 41 41 42 43 44 44 45 45 46 46 47 48 48 48 49 50 51 51 52 52 54 55 55 55 54 54 55 57 58 59 61 68 73 74 74 73 73 74 74 75 77 77 76 75 74 74 73 72 73 73 73 73 73 73 72 70 63 52 43 53 76 73 64 60
31 33 32 32 32 32 35 37 38 40 40 38 39 39 40 41 41 41 41 41 42 42 42 42 42 42 43 44 45 45 46 46 47 47 48 48 49 50 51 51 52 52 52 55 55 54 54 55 57 57 58 59 64 69 71 72 73 74 74 74 72 72 74 76 75 74 74 74 73 72 73 73 74 74 75 74 73 71 69 68 65 46 42 51 53 48